Find Starlink 33579

NORAD ID: 62764 Int'l Des: 2025-015 Owner: SPXS Country: US Constellation: starlink operational
LEOCIRCULAR

Current View

Loading 3D Globe...

About Starlink 33579

Starlink 33579 (NORAD 62764) is a starlink constellation satellite (v2 mini) launched Jan 21, 2025 by SPXS of US. It operates in LEO, CIRCULAR orbit with a mass of 575.00 kg.

Upcoming Passes

Passes for default location (London). Set your location on the main map for personalized predictions.

Altitude History

Loading altitude history...

Two-Line Element Set

1 62764U 25015G 26263.04691463 .00012869 00000-0 42560-3 0 9996
2 62764 53.1587 137.8764 0001224 109.3199 250.7934 15.31710483 94267
Epoch: Sep 20, 2026 • Age: 39 hours

Current Status

Altitude 489.4 km
Apogee / Perigee N/A
Velocity 7.62 km/s
Sub-Earth Point -51.92°S, 178.88°E
Launch Date Jan 21, 2025
Age 1.6 years
Type internet

Technical Details

Classification Payload
Mass 575.00 kg
Dry Mass 530.00 kg
Length 0.30 m
Span 29.00 m
Shape ? Box + pan
Manufacturer SPXS
Bus Type Starlink V2MO
Phase Status In Orbit
Owner/State SPXS/US

Most Searched